Home > Weather > Lierbyen > Past weeks

Flag for Norway Weather for the Past 2 Weeks in Lierbyen, Norway

Now
46 °F

Low clouds.


Feels Like: 36 °F
Forecast: 39 / 50 °F
Wind: 39 mph from South

Location: Statfjord B

Current Time: May 2, 2016 at 1:28:10 AM

Latest Report: May 2, 2016 at 12:50 AM


Visibility: N/A

Pressure: 29.83 "Hg

Humidity: 93%

Dew Point: 45 °F

Location of LierbyenLocation

Historic Weather in Lierbyen — Graph

°F

Lierbyen Temperature Yesterday

Maximum temperature yesterday: 46 °F (at 7:20 AM)
Minimum temperature yesterday: 43 °F (at 6:20 PM)
Average temperature yesterday: 45 °F

High & Low Weather Summary for the Past Weeks

 TemperatureHumidityPressure
High48 °F (Apr 28, 10:50 AM)100% (Apr 20, 2:20 PM)30.33 "Hg (Apr 20, 2:20 PM)
Low30 °F (Apr 23, 6:20 AM)50% (Apr 28, 10:50 AM)29.27 "Hg (Apr 18, 10:20 AM)
Average42 °F74%29.87 "Hg
* Reported Apr 16 11:50 PM — May 1 11:50 PM, Lierbyen, Weather by CustomWeather, © 2016

Note: Actual official high and low records may vary slightly from our data, if they occured in-between our weather recording intervals... More about our weather records

Advertising

Lierbyen Weather History for the Previous 24 Hours

Scroll right to see more
 ConditionsComfort  
Time TempWeatherWind HumidityBarometerVisibility
11:50 PM
Sun, May 1
46 °FPassing clouds.33 mph93%29.86 "HgN/A
11:20 PM46 °FPassing clouds.26 mph93%29.89 "HgN/A
10:50 PM46 °FPassing clouds.25 mph93%29.89 "HgN/A
10:20 PM46 °FPassing clouds.24 mph93%29.92 "HgN/A
9:50 PM46 °FPartly sunny.23 mph93%29.92 "HgN/A
9:20 PM46 °FPartly sunny.23 mph93%29.92 "HgN/A
8:50 PM46 °FSprinkles. Partly sunny.23 mph93%29.92 "HgN/A
8:20 PM46 °FBroken clouds.24 mph93%29.92 "HgN/A
7:50 PM46 °FPartly sunny.18 mph87%29.92 "HgN/A
7:20 PM45 °FPartly sunny.18 mph76%29.92 "HgN/A
6:50 PM45 °FSprinkles. Partly sunny.20 mph76%29.92 "HgN/A
6:20 PM43 °FDrizzle. Partly sunny.22 mph87%29.92 "HgN/A
5:50 PM45 °FPartly sunny.31 mph100%29.92 "HgN/A
5:20 PM45 °FPartly sunny.35 mph100%29.89 "HgN/A
4:50 PM45 °FLight rain. Low clouds.41 mph100%29.89 "HgN/A
4:20 PM45 °FLight rain. Partly sunny.45 mph93%29.89 "Hg3 mi
3:50 PM45 °FSprinkles. Partly sunny.53 mph93%29.89 "Hg4 mi
3:20 PM45 °FSprinkles. Overcast.54 mph87%29.89 "HgN/A
2:50 PM45 °FDrizzle. Partly sunny.50 mph87%29.89 "HgN/A
2:20 PM45 °FLight rain. Partly sunny.51 mph87%29.89 "HgN/A
1:50 PM45 °FLight rain. Partly sunny.46 mph87%29.92 "HgN/A
1:20 PM45 °FSprinkles. Partly sunny.51 mph87%29.92 "HgN/A
12:50 PM46 °FSprinkles. Partly sunny.50 mph82%29.92 "HgN/A
12:20 PM46 °FPartly sunny.51 mph82%29.92 "HgN/A
11:50 AM46 °FPartly sunny.51 mph82%29.92 "HgN/A
11:20 AM46 °FPartly sunny.48 mph82%29.95 "HgN/A
10:50 AM46 °FPartly sunny.48 mph82%29.95 "HgN/A
10:20 AM46 °FPartly sunny.48 mph82%29.95 "HgN/A
9:50 AM46 °FPartly sunny.46 mph82%29.95 "HgN/A
8:50 AM46 °FPartly sunny.43 mph82%29.98 "HgN/A
8:20 AM46 °FPartly sunny.43 mph76%29.98 "HgN/A
7:50 AM46 °FPartly sunny.40 mph76%30.01 "HgN/A
7:20 AM46 °FPartly sunny.40 mph76%30.01 "HgN/A
6:20 AM45 °FQuite cool.35 mph76%30.01 "HgN/A
5:50 AM45 °FPassing clouds.32 mph76%30.01 "HgN/A
4:50 AM45 °FPassing clouds.30 mph71%30.04 "HgN/A
4:20 AM45 °FPassing clouds.28 mph71%30.04 "HgN/A
3:50 AM45 °FPassing clouds.25 mph71%30.04 "HgN/A
3:20 AM45 °FPassing clouds.25 mph76%30.07 "HgN/A
2:50 AM45 °FQuite cool.24 mph71%30.07 "HgN/A
2:20 AM45 °FQuite cool.24 mph71%30.07 "HgN/A
1:50 AM45 °FPassing clouds.23 mph71%30.07 "HgN/A
1:20 AM45 °FQuite cool.22 mph76%30.07 "HgN/A
Weather by CustomWeather, © 2016

See weather overviewHow to use our weather pages